1st Responders/1st Detectors/Storm Spotters Weather Summary for Harrison County, KY

Forecast Maps


Reg. NEXRAD Animation


National Fire Danger: Day 1 & 2 Map

Current NWS Watch/Warnings

SPC Convective Day 1 Outlook


Day 2 Outlook

(Click images to enlarge|Page will refresh every 5 minutes)
UK Ag. Weather Center Desktop Severe Weather Service[HERE]
Harrison County, KY Hazardous Weather Outlook Webcast
(9 AM to 9 PM Mon-Fri)
[Fast]
[Dial-up]


UKAWC 1st Detectors/1st Responders Precision Weather Forecast For HARRISON County, Kentucky
(based on the NWS County Digital Forecast)

ISSUED AT 21:00 UTC ON THURSDAY OCT 19 2017
DAY THURSDAY
EDT 3HR 6P 7P
MAX/MIN -- 72°
TEMP 68° 65°
SKY COVER 3% 2%
Clouds
DEW PT 49° 49°
RH 50% 57%
POP 12HR -- --
RAIN/SNOW (liq.equ) -- --
SNOWFALL -- --
WIND SPEED(MPH) 7 5
WIND Gust(MPH) 7 5
WIND DIR SW SW
DEW -- --
HeatIndex 68 65
Rain Showers -- --
Thunder Storm -- --
Fog -- --
WIND CHILL -- --
SPRAY COND
DRY COND
LIVESTOCK COLDSTRESS
LIVESTOCK HEATSTRESS 65.47 63.53



DAY FRIDAY SATURDAY SUNDAY MONDAY TUESDAY WEDNESDAY
EDT 6HR 8P 9P 10P 11P MIDN 1A 2A 3A 4A 5A 6A 7A 8A 9A 10A 11A NOON 1P 2P 3P 4P 5P 6P 7P 8P 9P 10P 11P MIDN 1A 2A 3A 4A 5A 8A 11A 2P 5P 8P 2A 8A 2P 8P 2A 8A 2P 8P 2A 8A 2P 8P 2A 8A 2P 8P
MAX/MIN -- -- -- -- -- -- -- -- -- -- -- -- 45° -- -- -- -- -- -- -- -- -- -- 74° -- -- -- -- -- -- -- -- -- -- 49° -- -- 76° -- -- 52° 76° -- -- 58° 70° -- -- 52° 63° -- -- 43° 56° --
TEMP 61° 58° 56° 56° 54° 52° 52° 52° 50° 49° 47° 45° 47° 50° 56° 61° 67° 70° 72° 74° 74° 72° 70° 65° 63° 59° 58° 58° 56° 56° 54° 54° 52° 50° 49° 63° 74° 74° 65° 56° 54° 74° 67° 61° 58° 70° 63° 58° 52° 63° 54° 47° 43° 56° 50°
SKY COVER 1% 1% 1% 1% 1% 1% 1% 2% 4% 3% 11% 13% 17% 15% 7% 4% 2% 2% 1% 4% 11% 14% 12% 7% 4% 4% 4% 4% 8% 15% 21% 21% 22% 23% 25% 9% 24% 23% 34% 39% 52% 50% 54% 82% 90% 86% 78% 76% 76% 67% 55% 51% 56% 43% 40%
Clouds
DEW PT 50° 50° 49° 49° 49° 49° 49° 49° 47° 47° 47° 45° 45° 47° 50° 52° 52° 54° 54° 54° 54° 54° 54° 54° 54° 54° 54° 54° 52° 50° 49° 49° 47° 47° 45° 52° 49° 49° 49° 49° 47° 56° 56° 56° 56° 59° 58° 54° 50° 49° 45° 40° 38° 38° 38°
RH 66% 74% 77% 80% 85% 89% 88% 89% 89% 92% 100% 100% 96% 89% 83% 72% 60% 54% 51% 48% 47% 53% 58% 67% 74% 83% 83% 86% 86% 83% 82% 83% 83% 86% 86% 65% 41% 41% 57% 74% 79% 51% 67% 87% 92% 70% 81% 82% 96% 58% 74% 76% 81% 50% 63%
POP 12HR 0% -- -- -- -- -- -- -- -- -- -- -- 0% -- -- -- -- -- -- -- -- -- -- -- 0% -- -- -- -- -- -- -- -- -- 2% -- -- -- 2% -- 4% -- 8% -- 47% -- 70% -- 62% -- 55% -- 27% -- 25%
RAIN/SNOW (liq.equ) 0.00in -- -- -- -- -- 0.00in -- -- -- -- -- 0.00in -- -- -- -- -- 0.00in -- -- -- -- -- 0.00in -- -- -- -- -- 0.00in -- -- -- 0.00in -- 0.00in -- 0.00in -- -- -- -- -- -- -- -- -- -- -- -- -- -- -- --
SNOWFALL 0in -- -- -- -- -- 0in -- -- -- -- -- 0in -- -- -- -- -- 0in -- -- -- -- -- 0in -- -- -- -- -- 0in -- -- -- 0in -- 0in -- 0in -- -- -- -- -- -- -- -- -- -- -- -- -- -- -- --
WIND SPEED(MPH) 5 5 2 2 2 2 2 2 2 1 1 1 1 1 1 1 1 2 2 5 5 5 5 5 2 2 2 2 2 2 2 2 2 2 2 6 7 7 6 6 6 10 7 7 5 7 6 5 7 9 8 5 6 8 6
WIND DIR SW SW SW S S S S S S S S S S S S S S S S S S S SE SE SE SE SE SE SE SE SE SE SE SE S S S S S S S S S S S S S SW W W W W W NW W
HeatIndex 61 58 56 56 54 52 52 52 50 49 47 45 47 50 56 61 67 70 72 74 74 72 70 65 63 59 58 58 56 56 54 54 52 50 49 63 74 74 65 56 54 74 67 61 58 70 63 58 52 63 54 47 40 56 50
Rain Showers -- -- -- -- -- -- -- -- -- -- -- -- -- -- -- -- -- -- -- -- -- -- -- -- -- -- -- -- -- -- -- -- -- -- -- -- -- -- -- -- -- -- Chance Chance Likely Likely Likely Likely Chance Likely Chance -- Slight Chance Chance --
Thunder Storm -- -- -- -- -- -- -- -- -- -- -- -- -- -- -- -- -- -- -- -- -- -- -- -- -- -- -- -- -- -- -- -- -- -- -- -- -- -- -- -- -- -- Slight Chance -- -- Slight Chance -- -- -- -- -- -- -- -- --
Fog -- -- -- -- -- -- -- -- -- Patchy Patchy Patchy Patchy -- -- -- -- -- -- -- -- -- -- -- -- -- -- -- -- -- -- -- -- -- -- -- -- -- -- -- -- -- -- -- -- -- -- -- -- -- -- -- -- -- --
WIND CHILL -- -- -- -- -- -- -- -- -- -- -- -- -- -- -- -- -- -- -- -- -- -- -- -- -- -- -- -- -- -- -- -- -- -- -- -- -- -- -- -- -- -- -- -- -- -- -- -- -- -- -- -- 39° -- --
SPRAY COND
DRY COND
LIVESTOCK COLDSTRESS
LIVESTOCK HEATSTRESS 60.59 58.11 56.35 56.31 54.40 52.41 52.45 52.41 50.53 49.43 47.00 45.00 47.26 50.53 56.26 60.66 65.20 67.17 68.44 69.65 69.57 68.59 67.41 63.87 62.40 58.98 58.07 58.06 56.22 56.26 54.48 54.45 52.64 50.68 49.75 62.19 69.07 69.07 63.53 56.40 54.55 69.90 65.51 60.84 58.04 68.15 62.56 58.08 52.15 62.03 54.69 48.56 44.65 56.77 51.79

Click on individual weather variable above in left-hand column (ie., TEMP, RH, QPF 12HR) to view state forecast maps






NWS 48 Hr. Forecast Maps,

Regional Hourly Observations For HARRISON County, Kentucky
Issued at 500 PM EDT THU OCT 19 2017
NORTHEAST KENTUCKY
  
CITY           SKY/WX    TMP DP  RH WIND       PRES   REMARKS
LEXINGTON      SUNNY     71  49  45 SW9       30.23S                  
COVINGTON      SUNNY     73  52  47 SW6       30.20S                  
FRANKFORT      SUNNY     72  48  42 SW8       30.21F                  


Current NOWCAST not available:
Nowcasts are not issued routinely during fair weather. Only when
precipitation or other significant weather is occuring in this county will these
forecasts be issued. Currently, there is no short term forecast in effect.


Fire Weather Forecast For HARRISON County, KY
Provided by the National Weather Service:

Issued at: Thu Oct 19 17:05:01 EDT 2017


                      Tonight      Fri          Fri Night    Sat          

CLOUD COVER           Clear        MClear       MClear       MClear       
PRECIP TYPE           NONE         NONE         NONE         NONE         
CHANCE PRECIP (%)     0            0            0            0            
TEMP (24H TREND)      45 (+2)      75 (+2)      49           76           
RH % (24H TREND)      100 (+5)     45 (+2)      88           39           
20FTWND-VAL/AM(MPH)                Lgt/Var                   Lgt/Var      
20FTWND-RDG/PM(MPH)   Lgt/Var      Lgt/Var      Lgt/Var      S  6         
PRECIP AMOUNT         0.00         0.00         0.00         0.00         
MIXING HGT(FT-AGL/MSL)             4300                      4190         
TRANSPORT WND (MPH)                SE  5                     S 15         
VENT RATE (KT-FT)                  20750                     53928        
DISPERSION                         Poor                      Good         
DSI                   STBL         STBL         STBL         STBL         
LAL                   1            1            1            1            
HAINES INDEX          5            5            5            5            
ADI EARLY             3 VERY POOR  4 VERY POOR  2 VERY POOR  13 GEN POOR  
ADI LATE              2 VERY POOR  20 GEN POOR  2 VERY POOR  54 GEN GOOD  
MAX LVORI EARLY       5            8            5            6            
MAX LVORI LATE        8            2            6            2            

REMARKS...ADI IS ATMOSPHERIC DISPERSION INDEX BY LAVDAS.        
LVORI IS LOW VISIBILITY OCCURRENCE RISK INDEX.

.SUNDAY...Partly cloudy. A 20 percent chance of rain showers.
Lows in the mid 50s. Highs in the upper 70s. South winds around
5 mph. 
.MONDAY...Mostly cloudy with rain showers likely. Lows in the
upper 50s. Highs in the lower 70s. Southeast winds 5 to 10 mph. 
.TUESDAY...Mostly cloudy. Rain showers likely. Lows in the lower
50s. Highs in the lower 60s. West winds 5 to 10 mph. 
.WEDNESDAY...Mostly cloudy. A 30 percent chance of rain showers.
Lows in the lower 40s. Highs in the mid 50s. West winds 5 to
10 mph. 
.THURSDAY...Partly cloudy. Lows in the upper 30s. Highs in the
upper 50s. West winds around 5 mph. 

SPC's Fire Weather Web Tool (Excellent!), SPC's Fire Weather Outlooks, NWS Fire Weather WEB, Fire Danger Class Map,
Keetch-Byram Drought Index, ROMAN Web, Haines Index ,
WFAS's 10-hr Dead Fuel Moist., WFAS's 100-hr Dead Fuel Moist., Probablity of Ignition, Visual blackness Map, Palmer Drought Index, HPC's Rainfall Forecast Maps


Hazardous Weather Outlook For HARRISON County, Kentucky
302 PM EDT Thu Oct 19 2017 /202 PM CDT Thu Oct 19 2017/

 DAY ONE  Tonight.

No hazardous weather is expected at this time.

 DAYS TWO THROUGH SEVEN  Friday through Wednesday.

Showers and thunderstorms will be possible Sunday and Monday as a
cold front moves through the region. Gusty winds will be possible,
but organized severe weather is not expected at this time. 

 SPOTTER INFORMATION STATEMENT  

Spotter activation is not needed at this time. 

Latest HARRISON County, Kentucky Watches, Warnings and Advisories.
Additional Drought Info.: UKAWC Drought Page, Kentucky Drought Watch


7-Day Forecast For HARRISON County, KY

TONIGHT
Clear. Lows in the mid 40s. Southwest winds up to 5 mph.

FRIDAY
Mostly sunny. Patchy fog. Highs in the mid 70s. South winds up to 5 mph.

FRIDAY NIGHT
Mostly clear. Lows in the upper 40s. Southeast winds up to 5 mph.

SATURDAY
Mostly sunny. Highs in the mid 70s. South winds up to 10 mph.

SATURDAY NIGHT
Partly cloudy. Lows in the lower 50s. South winds around 5 mph.

SUNDAY
Partly cloudy with a 20 percent chance of showers. Highs in the upper 70s.

SUNDAY NIGHT
Mostly cloudy with a 50 percent chance of showers. Lows in the upper 50s.

MONDAY
Showers likely and slight chance of thunderstorms. Highs in the lower 70s. Chance of precipitation 60 percent.

MONDAY NIGHT
Showers likely. Lows in the lower 50s. Chance of showers 60 percent.

TUESDAY
Partly cloudy with a 50 percent chance of showers. Highs in the mid 60s.

TUESDAY NIGHT
Partly cloudy with a 20 percent chance of showers. Lows in the lower 40s.

WEDNESDAY
Partly cloudy with a 30 percent chance of showers. Highs in the mid 50s.

WEDNESDAY NIGHT
Partly cloudy. Lows in the upper 30s.

THURSDAY
Partly cloudy with a 30 percent chance of rain showers. Highs in the upper 50s.

Ag Weather Center, Department of Biosystems & Agricultural Engineering, University of Kentucky